Showing default

ZHUHAI-1 03A, 44534

Orbit data source: Space-Track

ZHUHAI-1 03A, 44534 is a payload satellite owned by Zhuhai Orbita (CN) in SSO that was launched on Thu, 19 Sep 2019 UTC via a CHANG ZHENG 11 launch vehicle from the Jiuquan Satellite Launch Center, China (JSC). Payload-class satellites include a variety of spacecraft equipped with specific instruments for various scientific and technological missions. These include communications satellites like Starlink; space stations such as the ISS; scientific satellites like the Hubble; Earth observation satellites from companies like Planet Labs, Umbra, and HawkEye 360; GPS; miniature CubeSats for education and research; and military/defense satellites.

Not visible in the next 10 days
Identifier
44534, 2019-060A
Orbit
SSO
Last TLE update
6 hours ago
Origin
Manufacturer
Harbin
Mission
Operational Commercial Imaging
Bus & Motor
OHS-1, Unknown motor
Mass
69 kg wet, ~69 kg dry
Launch date (UTC)
2019-09-19 (6 years ago)
Launch vehicle
CHANG ZHENG 11
Launch site
Jiuquan Satellite Launch Center, China (JSC)
Object type
Payload
Rocket body
Debris
Shape & HBR
Box, Unknown HBR
Radar Cross Section
0.280 m², Medium (>0.1 m² and < 1m²)

Expand to show TLE details & history

TLE from 6 hours ago
0 ZHUHAI-1 03A
1 44534U 19060A   25182.18979166  .00162559  00000-0  78206-3 0  9995
2 44534  97.5216 330.8621 0003673 112.5997 247.5660 15.82200612322709
Epoch: 2025-07-01T04:33Z
TLE epoch observation values (Epoch: 2025-07-01T04:33:17.999Z)
Latitude
-0.00004°
Longitude
-16.9517°
Altitude
328.33 km
Speed
7.711 km/s
True Right ascension
22h 03m 26s
True Declination
0° 00' 00"
Sunlit
Object was in full shadow at epoch
Visualization orbit readout
Latitude
-77.06721°
Longitude
128.43273°
Altitude
353.74 km
Speed
7.694 km/s
Apparent Right ascension
09h 21m 30s
Apparent Declination
-59° 32' 40"
Sunlit
Object is in daylight
Visualization observer readout
Local Sidereal Time
21:50:28
Azimuth
169.307° S
Elevation
-69.849°
Doppler factor
1
Orbital elements
Apogee altitude
323.568 km
Perigee altitude
318.647 km
Semi-major axis
6,699.244 km
Eccentricity
0.00037
Inclination
97.5216°
RAAN
330.8621°
Arg. of periapsis
112.5997°
True anomaly
Unknown
Mean anomaly
247.566°
Eccentric anomaly
Unknown
Mean motion
3.95826 °/min
Orbital period
90.95 mins
BSTAR
0.00078206
Loading maneuver chart data...
Loading SW <> Apogee altitude chart data...
Loading historical data...
Loading historical data...
Loading historical data...
Loading historical data...
Loading historical data...
Loading historical data...
Loading historical data...

ZHUHAI-1 03A Visibility

Observer location: undefined°, undefined°

ZHUHAI-1 03A is likely not visible in the next few days
Span
Click to sort rows by Start time (UTC) header in descending order
Start Az.
Max El. time (UTC)
Max El. Az.
Max El.
End time (UTC)
End Az.
|